Weather in Cheremshanka

Russia / Krasnoyarsk Krai     53°52′49″N   93°44′07″E
temp.,
°C
wind,
m/s
gust,
m/s
humid.,
%
clouds,
%
prec.,
mm/h
press.,
hPa
HPBL,
m
24 july, sat
sat2401:00+17sse018383 0.0 100611
04:00+16ene2274100 0.0 100531
07:00+18ene1272100 0.0 100471
10:00+21ssw0163100 0.0 1005237
13:00+23wsw1261100 0.0 1005369
16:00+26w335086 0.0 10041025
19:00+23wsw247673 0.0 1005299
22:00+17wsw119679 0.0 100511
25 july, sun
sun2501:00+16ese00988 0.0 100611
04:00+15e119956 0.0 100611
07:00+17se119699 0.0 1007146
10:00+21sse0178100 0.0 1007665
13:00+25ne116257 0.1 10061111
16:00+27w125338 0.0 10041143
19:00+25w127117 0.0 100454
22:00+19wsw119497 0.0 100511
26 july, mon
mon2601:00+17ese11965 0.0 100511
04:00+16e11974 0.0 100411
07:00+18e11920 0.0 1005117
10:00+25sw11631 0.0 1003743
13:00+28w225031 0.0 10011657
16:00+28w444743 0.0 10011552
19:00+22w369175 0.9 1002147
22:00+18ssw119694 0.9 100211
27 july, tue
tue2701:00+17ese119748 1.4 100211
04:00+16s0198100 0.0 100210
07:00+17wsw1298100 0.6 100396
10:00+16sw14100100 5.0 1004277
13:00+16w4799100 10.7 1005452
16:00+15sw2499100 3.7 1007248
19:00+15ssw1198100 4.6 1007169
22:00+14wsw1199100 0.3 100820
28 july, wed
wed2801:00+14wnw1299100 0.4 100876
04:00+12nw2398100 0.0 1009102
07:00+12wnw129588 0.0 1010157
10:00+17wnw225516 0.0 1010991
13:00+20w234123 0.0 10081881
16:00+18wnw2658100 0.0 1008363
19:00+17wnw12635 0.0 1009122
22:00+10nnw11860 0.0 101011